Regional Weather Roundup
Issued by NWS

Home | Current Version | Previous Version | Text Only | Print | Product List | Glossary Off
Versions: 1 2 3 4 5 6 7 8 9 10 11 12 13 14 15 16 17 18 19 20 21 22 23 24 25 26 27

000
ASUS45 KTFX 272210
RWRMT
MONTANA REGIONAL WEATHER ROUNDUP
NATIONAL WEATHER SERVICE GREAT FALLS MT
400 PM MDT SAT AUG 27 2016

NOTE: "FAIR" INDICATES FEW OR NO CLOUDS BELOW 12000 FEET WITH NO
SIGNIFICANT WEATHER AND/OR OBSTRUCTIONS TO VISIBILITY.

MTZ001>007-043-272300-
WEST OF THE DIVIDE

CITY           SKY/WX    TMP DP  RH WIND       PRES   REMARKS
KALISPELL      MOSUNNY   81  41  24 SW9       29.71F
MISSOULA       SUNNY     86  35  16 S12G28    29.78F
BUTTE          CLOUDY    77  30  17 W13G24    29.93F
MULLAN PASS    MOSUNNY   66  34  30 SW16G28   29.95F
DEER LODGE       N/A     79  36  21 SW9       29.89S
EUREKA           N/A     81  39  22 SW8       29.70R
HAMILTON         N/A     81  37  21 NE6       29.83F
LIBBY            N/A     81  41  24 CALM      29.71F
RONAN            N/A     85  40  20 S13       29.83F
$$

MTZ008-052>055-272300-
SOUTHWEST MONTANA

CITY           SKY/WX    TMP DP  RH WIND       PRES   REMARKS
BOZEMAN        CLOUDY    84  27  12 W13       29.86F
DILLON         SUNNY     80  29  15 SW14G23   29.92F
W YELLOWSTONE  CLOUDY    72  25  17 S21G26    30.09F
ENNIS          MOSUNNY   82  25  12 SW18G24   29.98F
THREE FORKS      N/A     84  84 100 SW9       29.87F HX 103
TWIN BRIDGES     N/A     83  31  15 S12       29.91F
$$

MTZ009-010-012-014-046-048-049-054-272300-
EAST SLOPES AND CENTRAL MONTANA

CITY           SKY/WX    TMP DP  RH WIND       PRES   REMARKS
CUT BANK       CLOUDY    73  38  27 SW10      29.73F
GREAT FALLS    MOSUNNY   82  34  17 W22G28    29.75F
MALMSTROM AFB  CLOUDY    81  37  20 MISG      29.75F
HELENA         CLOUDY    86  37  17 W7        29.79F
CHOTEAU          N/A     75  37  25 SW12      29.79F
$$

MTZ011-013-016-021-045-047-050-051-272300-
NORTH CENTRAL MONTANA

CITY           SKY/WX    TMP DP  RH WIND       PRES   REMARKS
HAVRE          CLOUDY    86  37  17 SW21      29.66F
LEWISTOWN      CLOUDY    80  36  20 W15       29.82F
N BAR RANCH      N/A     79  34  19 SW12      29.85F
CHINOOK          N/A     84  41  21 S8        29.66F
$$

MTZ017>020-022>027-061-062-272300-
NORTHEAST MONTANA

CITY           SKY/WX    TMP DP  RH WIND       PRES   REMARKS
GLASGOW        SUNNY     85  37  18 SW15      29.72F
JORDAN           N/A     86  37  17 SW8       29.75F
SIDNEY         SUNNY     83  44  25 S7        29.78F
WOLF POINT     SUNNY     85  40  20 W9        29.74F
POPLAR           N/A     84  43  23 S10G16    29.75F
$$

MTZ028>42-056>058-272300-
SOUTHCENTRAL AND SOUTHEAST MONTANA

CITY           SKY/WX    TMP DP  RH WIND       PRES   REMARKS
BAKER          MOSUNNY   82  37  20 W10G18    29.85F
BILLINGS       PTSUNNY   82  36  19 S12       29.83F
LIVINGSTON     SUNNY     87  29  12 W21G29    29.84F
MILES CITY     SUNNY     85  40  20 SW9G17    29.79F
FORSYTH          N/A     84  34  16 W14G23    29.79F
LAUREL           N/A     83  39  20 S5        29.85F
ROUNDUP          N/A     84  34  16 S9        29.74F
$$

REGIONAL REPORTS...DAKOTAS

CITY           SKY/WX    TMP DP  RH WIND       PRES   REMARKS
WILLISTON      SUNNY     82  43  25 S9        29.81F
MINOT          MOSUNNY   79  45  29 S10       29.84F
DICKINSON      MOSUNNY   78  40  25 S18G25    29.85F
CROSBY           N/A     79  37  22 SW6       29.84S
WATFORD CITY     N/A     81  45  28 S12       29.83F
BISMARCK       SUNNY     80  50  34 VRB7      29.88F
GRAND FORKS    LGT RAIN  66  61  84 S12       29.89F
FARGO          SUNNY     74  58  57 SE12      29.90F
BUFFALO SD       N/A     79  50  36 E9        29.82F
RAPID CITY     SUNNY     81  50  33 SE10      29.88F
$$

REGIONAL REPORTS...WYOMING/IDAHO/WASHINGTON

CITY           SKY/WX    TMP DP  RH WIND       PRES   REMARKS
GILLETTE       CLOUDY    81  29  15 VRB3      29.91F
SHERIDAN       CLOUDY    81  39  22 CALM      29.89S
BUFFALO WY     CLOUDY    81  32  17 N15G21    29.95S
CODY           CLOUDY    77  34  20 S10       29.95S
YELLOWSTONE LA   N/A     66  17  15 SW9G22    30.18F
IDAHO FALLS    MOSUNNY   82  28  14 SW17G24   30.00F
SALMON         MOSUNNY   81  34  18 N5        29.86F
BOISE          SUNNY     88  31  13 VRB5      29.89F
SPOKANE        CLOUDY    84  40  21 SW26G36   29.74S
$$

REGIONAL REPORTS...ALBERTA

CITY           SKY/WX    TMP DP  RH WIND       PRES   REMARKS
EDMONTON       CLOUDY    61  54  77 W6        29.60S
CALGARY        PTSUNNY   73  45  35 W9        29.61R
LETHBRIDGE     PTSUNNY   77  43  29 SW21G31   29.63F
MEDICINE HAT   PTSUNNY   82  45  26 W15       29.58R
$$

REGIONAL REPORTS...SASKATCHEWAN

CITY           SKY/WX    TMP DP  RH WIND       PRES   REMARKS
SWIFT CURRENT  SUNNY     79  43  27 SW20      29.66S
REGINA         PTSUNNY   79  43  27 S6G17     29.75F
SASKATOON      PTSUNNY   75  52  43 S17       29.66F
$$




USA.gov is the U.S. government's official web portal to all federal, state and local government web resources and services.